Time,TemperatureF,DewpointF,PressureIn,WindDirection,WindDirectionDegrees,WindSpeedMPH,WindSpeedGustMPH,Humidity,HourlyPrecipIn,Conditions,Clouds,dailyrainin,SoftwareType,DateUTC
2013-10-16 00:14:00,50.0,48.0,30.17,ESE,112,0.0,0.0,92,0.00,,,0.00,,2013-10-16 04:14:00,
2013-10-16 00:24:00,49.0,47.0,30.17,ESE,112,0.0,0.0,92,0.00,,,0.00,,2013-10-16 04:24:00,
2013-10-16 00:43:00,49.0,47.0,30.17,ESE,112,0.0,0.0,92,0.00,,,0.00,,2013-10-16 04:43:00,
2013-10-16 00:54:00,48.0,46.0,30.17,ESE,112,0.0,0.0,92,0.00,,,0.00,,2013-10-16 04:54:00,
2013-10-16 01:13:00,48.0,46.0,30.17,ESE,112,0.0,0.0,92,0.00,,,0.00,,2013-10-16 05:13:00,
2013-10-16 01:22:00,48.0,46.0,30.17,ESE,112,0.0,0.0,92,0.00,,,0.00,,2013-10-16 05:22:00,
2013-10-16 01:43:00,48.0,46.0,30.17,ESE,112,0.0,0.0,92,0.00,,,0.00,,2013-10-16 05:43:00,
2013-10-16 01:53:00,47.0,45.0,30.16,ESE,112,0.0,0.0,92,0.00,,,0.00,,2013-10-16 05:53:00,
2013-10-16 02:12:00,47.0,45.0,30.15,ESE,112,0.0,0.0,93,0.00,,,0.00,,2013-10-16 06:12:00,
2013-10-16 02:22:00,47.0,45.0,30.15,ESE,112,0.0,0.0,93,0.00,,,0.00,,2013-10-16 06:22:00,
2013-10-16 02:43:00,46.0,44.0,30.15,ESE,112,0.0,0.0,93,0.00,,,0.00,,2013-10-16 06:43:00,
2013-10-16 02:52:00,46.0,44.0,30.14,ESE,112,0.0,0.0,93,0.00,,,0.00,,2013-10-16 06:52:00,
2013-10-16 03:11:00,45.0,43.0,30.13,ESE,112,0.0,1.0,93,0.00,,,0.00,,2013-10-16 07:11:00,
2013-10-16 03:22:00,45.0,43.0,30.13,East,92,0.0,2.0,93,0.00,,,0.00,,2013-10-16 07:22:00,
2013-10-16 03:42:00,45.0,43.0,30.14,East,91,0.0,0.0,94,0.00,,,0.00,,2013-10-16 07:42:00,
2013-10-16 03:53:00,46.0,44.0,30.14,East,91,0.0,0.0,94,0.00,,,0.00,,2013-10-16 07:53:00,
2013-10-16 04:11:00,47.0,45.0,30.14,East,91,0.0,0.0,94,0.00,,,0.00,,2013-10-16 08:11:00,
2013-10-16 04:22:00,47.0,45.0,30.15,East,91,0.0,0.0,94,0.00,,,0.00,,2013-10-16 08:22:00,
2013-10-16 04:42:00,47.0,45.0,30.15,East,91,0.0,0.0,94,0.00,,,0.00,,2013-10-16 08:42:00,
2013-10-16 04:52:00,47.0,45.0,30.16,East,91,0.0,0.0,94,0.00,,,0.00,,2013-10-16 08:52:00,
2013-10-16 05:11:00,47.0,45.0,30.14,East,91,0.0,0.0,94,0.00,,,0.00,,2013-10-16 09:11:00,
2013-10-16 05:22:00,48.0,47.0,30.14,East,91,0.0,0.0,95,0.00,,,0.00,,2013-10-16 09:22:00,
2013-10-16 05:43:00,48.0,47.0,30.14,East,91,0.0,0.0,95,0.00,,,0.00,,2013-10-16 09:43:00,
2013-10-16 05:54:00,49.0,48.0,30.13,East,91,0.0,0.0,95,0.00,,,0.00,,2013-10-16 09:54:00,
2013-10-16 06:13:00,49.0,48.0,30.12,East,91,0.0,0.0,95,0.00,,,0.00,,2013-10-16 10:13:00,
2013-10-16 06:23:00,50.0,49.0,30.13,East,91,0.0,0.0,95,0.00,,,0.00,,2013-10-16 10:23:00,
2013-10-16 06:42:00,50.0,49.0,30.13,East,91,0.0,0.0,95,0.00,,,0.00,,2013-10-16 10:42:00,
2013-10-16 06:53:00,50.0,49.0,30.12,East,91,0.0,1.0,95,0.00,,,0.00,,2013-10-16 10:53:00,
2013-10-16 07:12:00,50.0,49.0,30.12,East,91,0.0,0.0,95,0.00,,,0.00,,2013-10-16 11:12:00,
2013-10-16 07:22:00,50.0,49.0,30.11,East,91,0.0,0.0,95,0.00,,,0.00,,2013-10-16 11:22:00,
2013-10-16 07:42:00,50.0,49.0,30.11,East,91,0.0,0.0,95,0.00,,,0.00,,2013-10-16 11:42:00,
2013-10-16 07:52:00,51.0,50.0,30.13,East,91,0.0,0.0,95,0.00,,,0.00,,2013-10-16 11:52:00,
2013-10-16 08:12:00,51.0,50.0,30.13,East,91,0.0,0.0,95,0.00,,,0.00,,2013-10-16 12:12:00,
2013-10-16 08:21:00,51.0,50.0,30.13,East,90,0.0,3.0,95,0.00,,,0.00,,2013-10-16 12:21:00,
2013-10-16 08:42:00,51.0,50.0,30.13,East,90,0.0,0.0,95,0.00,,,0.00,,2013-10-16 12:42:00,
2013-10-16 08:52:00,52.0,51.0,30.12,East,90,0.0,0.0,95,0.00,,,0.00,,2013-10-16 12:52:00,
2013-10-16 09:12:00,52.0,51.0,30.12,East,90,0.0,2.0,95,0.00,,,0.00,,2013-10-16 13:12:00,
2013-10-16 09:22:00,52.0,51.0,30.12,East,90,0.0,2.0,96,0.00,,,0.00,,2013-10-16 13:22:00,
2013-10-16 09:42:00,52.0,51.0,30.11,East,91,0.0,3.0,96,0.00,,,0.00,,2013-10-16 13:42:00,
2013-10-16 09:52:00,52.0,51.0,30.12,East,91,0.0,0.0,96,0.00,,,0.00,,2013-10-16 13:52:00,
2013-10-16 10:11:00,53.0,52.0,30.11,East,98,0.0,1.0,96,0.00,,,0.00,,2013-10-16 14:11:00,
2013-10-16 10:22:00,53.0,52.0,30.11,ENE,66,0.0,3.0,96,0.00,,,0.00,,2013-10-16 14:22:00,
2013-10-16 10:42:00,53.0,52.0,30.10,ENE,66,0.0,3.0,96,0.00,,,0.00,,2013-10-16 14:42:00,
2013-10-16 10:52:00,54.0,53.0,30.10,ENE,65,0.0,2.0,96,0.00,,,0.00,,2013-10-16 14:52:00,
2013-10-16 11:11:00,55.0,54.0,30.10,ENE,61,0.0,3.0,95,0.00,,,0.00,,2013-10-16 15:11:00,
2013-10-16 11:22:00,56.0,54.0,30.09,NE,46,1.0,7.0,92,0.00,,,0.00,,2013-10-16 15:22:00,
2013-10-16 11:43:00,58.0,53.0,30.08,NE,47,0.0,4.0,84,0.00,,,0.00,,2013-10-16 15:43:00,
2013-10-16 11:53:00,58.0,51.0,30.07,NE,41,0.0,4.0,77,0.00,,,0.00,,2013-10-16 15:53:00,
2013-10-16 12:13:00,59.0,51.0,30.07,NE,41,0.0,3.0,74,0.00,,,0.00,,2013-10-16 16:13:00,
2013-10-16 12:23:00,59.0,50.0,30.06,NE,41,0.0,0.0,72,0.00,,,0.00,,2013-10-16 16:23:00,
2013-10-16 12:42:00,59.0,50.0,30.05,NE,44,0.0,0.0,71,0.00,,,0.00,,2013-10-16 16:42:00,
2013-10-16 12:53:00,59.0,49.0,30.05,NE,44,0.0,0.0,70,0.00,,,0.00,,2013-10-16 16:53:00,
2013-10-16 13:12:00,59.0,49.0,30.04,NE,44,0.0,0.0,69,0.00,,,0.00,,2013-10-16 17:12:00,
2013-10-16 13:22:00,59.0,48.0,30.04,NE,44,0.0,1.0,68,0.00,,,0.00,,2013-10-16 17:22:00,
2013-10-16 13:43:00,59.0,48.0,30.02,NE,44,0.0,0.0,68,0.00,,,0.00,,2013-10-16 17:43:00,
2013-10-16 13:52:00,59.0,49.0,30.02,NE,44,0.0,1.0,70,0.00,,,0.00,,2013-10-16 17:52:00,
2013-10-16 14:11:00,60.0,50.0,30.01,NE,44,0.0,1.0,69,0.00,,,0.00,,2013-10-16 18:11:00,
2013-10-16 14:22:00,59.0,49.0,30.01,NE,44,0.0,0.0,70,0.00,,,0.00,,2013-10-16 18:22:00,
2013-10-16 14:42:00,59.0,50.0,30.01,NE,44,0.0,1.0,71,0.00,,,0.00,,2013-10-16 18:42:00,
2013-10-16 14:52:00,60.0,51.0,30.00,NE,44,0.0,0.0,72,0.00,,,0.00,,2013-10-16 18:52:00,
2013-10-16 15:11:00,59.0,50.0,29.99,NE,44,0.0,1.0,71,0.00,,,0.00,,2013-10-16 19:11:00,
2013-10-16 15:22:00,59.0,50.0,30.00,NE,44,0.0,1.0,73,0.00,,,0.00,,2013-10-16 19:22:00,
2013-10-16 15:42:00,59.0,51.0,30.00,NE,44,0.0,0.0,75,0.00,,,0.00,,2013-10-16 19:42:00,
2013-10-16 15:52:00,59.0,51.0,30.00,NE,44,0.0,0.0,75,0.00,,,0.00,,2013-10-16 19:52:00,
2013-10-16 16:12:00,59.0,51.0,29.99,NE,44,0.0,0.0,76,0.00,,,0.00,,2013-10-16 20:12:00,
2013-10-16 16:22:00,59.0,52.0,29.99,NE,44,0.0,0.0,77,0.00,,,0.00,,2013-10-16 20:22:00,
2013-10-16 16:43:00,58.0,51.0,29.99,NE,44,0.0,0.0,77,0.00,,,0.00,,2013-10-16 20:43:00,
2013-10-16 16:52:00,58.0,51.0,29.98,NE,44,0.0,0.0,78,0.00,,,0.00,,2013-10-16 20:52:00,
2013-10-16 17:11:00,58.0,51.0,29.98,NE,44,0.0,0.0,78,0.00,,,0.00,,2013-10-16 21:11:00,
2013-10-16 17:23:00,58.0,52.0,29.98,NE,44,0.0,0.0,79,0.00,,,0.00,,2013-10-16 21:23:00,
2013-10-16 17:44:00,57.0,51.0,29.98,NE,44,0.0,0.0,81,0.00,,,0.00,,2013-10-16 21:44:00,
2013-10-16 17:54:00,56.0,51.0,29.98,NE,44,0.0,0.0,82,0.00,,,0.00,,2013-10-16 21:54:00,
2013-10-16 18:14:00,56.0,51.0,29.98,NE,44,0.0,0.0,83,0.00,,,0.00,,2013-10-16 22:14:00,
2013-10-16 18:24:00,56.0,51.0,29.98,NE,44,0.0,0.0,84,0.00,,,0.00,,2013-10-16 22:24:00,
2013-10-16 18:42:00,55.0,51.0,29.98,NE,44,0.0,0.0,85,0.00,,,0.00,,2013-10-16 22:42:00,
2013-10-16 18:54:00,55.0,51.0,29.98,NE,44,0.0,0.0,85,0.00,,,0.00,,2013-10-16 22:54:00,
2013-10-16 19:12:00,54.0,50.0,29.97,NE,44,0.0,0.0,86,0.00,,,0.00,,2013-10-16 23:12:00,
2013-10-16 19:22:00,54.0,50.0,29.98,NE,44,0.0,2.0,87,0.00,,,0.00,,2013-10-16 23:22:00,
2013-10-16 19:42:00,54.0,50.0,29.97,NE,44,0.0,0.0,87,0.00,,,0.00,,2013-10-16 23:42:00,
2013-10-16 19:53:00,54.0,51.0,29.97,NE,44,0.0,1.0,88,0.00,,,0.00,,2013-10-16 23:53:00,
2013-10-16 20:12:00,54.0,51.0,29.96,NE,44,0.0,0.0,88,0.00,,,0.00,,2013-10-17 00:12:00,
2013-10-16 20:22:00,54.0,51.0,29.96,NE,44,0.0,0.0,89,0.00,,,0.00,,2013-10-17 00:22:00,
2013-10-16 20:42:00,53.0,50.0,29.96,NE,44,0.0,1.0,89,0.00,,,0.00,,2013-10-17 00:42:00,
2013-10-16 20:52:00,53.0,50.0,29.96,NE,44,0.0,0.0,89,0.00,,,0.00,,2013-10-17 00:52:00,
2013-10-16 21:12:00,53.0,50.0,29.96,NE,44,0.0,0.0,90,0.00,,,0.00,,2013-10-17 01:12:00,
2013-10-16 21:22:00,53.0,50.0,29.96,NE,44,0.0,2.0,90,0.00,,,0.00,,2013-10-17 01:22:00,
2013-10-16 21:42:00,52.0,49.0,29.95,NE,44,0.0,0.0,91,0.00,,,0.00,,2013-10-17 01:42:00,
2013-10-16 21:52:00,52.0,49.0,29.96,NE,44,0.0,0.0,91,0.00,,,0.00,,2013-10-17 01:52:00,
2013-10-16 22:12:00,52.0,49.0,29.94,NE,44,0.0,0.0,91,0.00,,,0.00,,2013-10-17 02:12:00,
2013-10-16 22:22:00,51.0,48.0,29.93,NE,44,0.0,0.0,91,0.00,,,0.00,,2013-10-17 02:22:00,
2013-10-16 23:12:00,50.0,48.0,29.93,NE,44,0.0,3.0,92,0.00,,,0.00,,2013-10-17 03:12:00,
2013-10-16 23:22:00,50.0,48.0,29.93,NE,44,0.0,0.0,92,0.00,,,0.00,,2013-10-17 03:22:00,
2013-10-16 23:44:00,49.0,47.0,29.93,NE,44,0.0,0.0,92,0.00,,,0.00,,2013-10-17 03:44:00,
2013-10-16 23:54:00,49.0,47.0,29.92,NE,44,0.0,0.0,92,0.00,,,0.00,,2013-10-17 03:54:00,